Time,TemperatureF,DewpointF,PressureIn,WindDirection,WindDirectionDegrees,WindSpeedMPH,WindSpeedGustMPH,Humidity,HourlyPrecipIn,Conditions,Clouds,dailyrainin,SoftwareType,DateUTC
2013-01-11 00:13:00,33.3,23.0,30.50,NNW,345,0.0,-999.0,66,-99.99,,,0.00,weatherlink.com 1.10,2013-01-11 05:13:00,
2013-01-11 00:28:00,33.0,23.0,30.51,NNW,345,0.0,-999.0,66,-99.99,,,0.00,weatherlink.com 1.10,2013-01-11 05:28:00,
2013-01-11 00:43:00,32.6,23.0,30.50,NNW,345,0.0,-999.0,67,-99.99,,,0.00,weatherlink.com 1.10,2013-01-11 05:43:00,
2013-01-11 00:58:00,32.5,23.0,30.50,North,350,0.0,-999.0,67,-99.99,,,0.00,weatherlink.com 1.10,2013-01-11 05:58:00,
2013-01-11 01:13:00,32.2,23.0,30.49,North,350,0.0,-999.0,68,-99.99,,,0.00,weatherlink.com 1.10,2013-01-11 06:13:00,
2013-01-11 01:28:00,31.8,22.0,30.49,North,350,0.0,-999.0,68,-99.99,,,0.00,weatherlink.com 1.10,2013-01-11 06:28:00,
2013-01-11 01:43:00,31.6,22.0,30.50,North,350,0.0,-999.0,68,-99.99,,,0.00,weatherlink.com 1.10,2013-01-11 06:43:00,
2013-01-11 01:58:00,31.2,22.0,30.50,North,350,0.0,-999.0,69,-99.99,,,0.00,weatherlink.com 1.10,2013-01-11 06:58:00,
2013-01-11 02:13:00,30.6,22.0,30.50,North,350,0.0,-999.0,69,-99.99,,,0.00,weatherlink.com 1.10,2013-01-11 07:13:00,
2013-01-11 02:28:00,30.1,21.0,30.49,North,350,0.0,-999.0,69,-99.99,,,0.00,weatherlink.com 1.10,2013-01-11 07:28:00,
2013-01-11 02:43:00,29.7,21.0,30.49,North,350,0.0,-999.0,71,-99.99,,,0.00,weatherlink.com 1.10,2013-01-11 07:43:00,
2013-01-11 02:58:00,29.5,22.0,30.49,North,350,0.0,-999.0,72,-99.99,,,0.00,weatherlink.com 1.10,2013-01-11 07:58:00,
2013-01-11 03:13:00,29.5,22.0,30.49,North,350,0.0,-999.0,72,-99.99,,,0.00,weatherlink.com 1.10,2013-01-11 08:13:00,
2013-01-11 03:28:00,29.4,22.0,30.48,North,350,0.0,-999.0,73,-99.99,,,0.00,weatherlink.com 1.10,2013-01-11 08:28:00,
2013-01-11 03:43:00,29.3,22.0,30.47,North,350,0.0,-999.0,73,-99.99,,,0.00,weatherlink.com 1.10,2013-01-11 08:43:00,
2013-01-11 03:58:00,29.0,21.0,30.47,North,350,0.0,-999.0,73,-99.99,,,0.00,weatherlink.com 1.10,2013-01-11 08:58:00,
2013-01-11 04:13:00,28.8,22.0,30.46,North,350,0.0,-999.0,74,-99.99,,,0.00,weatherlink.com 1.10,2013-01-11 09:13:00,
2013-01-11 04:28:00,28.5,21.0,30.46,North,350,0.0,-999.0,74,-99.99,,,0.00,weatherlink.com 1.10,2013-01-11 09:28:00,
2013-01-11 04:43:00,28.3,21.0,30.46,North,350,0.0,-999.0,75,-99.99,,,0.00,weatherlink.com 1.10,2013-01-11 09:43:00,
2013-01-11 04:58:00,28.1,21.0,30.46,North,350,0.0,-999.0,75,-99.99,,,0.00,weatherlink.com 1.10,2013-01-11 09:58:00,
2013-01-11 05:13:00,28.1,21.0,30.45,North,350,0.0,-999.0,76,-99.99,,,0.00,weatherlink.com 1.10,2013-01-11 10:13:00,
2013-01-11 05:28:00,28.1,22.0,30.46,North,350,0.0,-999.0,77,-99.99,,,0.00,weatherlink.com 1.10,2013-01-11 10:28:00,
2013-01-11 05:43:00,28.2,22.0,30.46,North,350,0.0,-999.0,77,-99.99,,,0.00,weatherlink.com 1.10,2013-01-11 10:43:00,
2013-01-11 05:58:00,28.3,22.0,30.47,North,350,0.0,-999.0,78,-99.99,,,0.00,weatherlink.com 1.10,2013-01-11 10:58:00,
2013-01-11 06:13:00,28.4,22.0,30.47,North,350,0.0,-999.0,78,-99.99,,,0.00,weatherlink.com 1.10,2013-01-11 11:13:00,
2013-01-11 06:28:00,28.4,22.0,30.46,North,350,0.0,-999.0,78,-99.99,,,0.00,weatherlink.com 1.10,2013-01-11 11:28:00,
2013-01-11 06:43:00,28.5,22.0,30.47,North,350,0.0,-999.0,78,-99.99,,,0.00,weatherlink.com 1.10,2013-01-11 11:43:00,
2013-01-11 06:58:00,28.4,22.0,30.48,North,350,0.0,-999.0,78,-99.99,,,0.00,weatherlink.com 1.10,2013-01-11 11:58:00,
2013-01-11 07:13:00,28.2,22.0,30.49,North,350,0.0,-999.0,78,-99.99,,,0.00,weatherlink.com 1.10,2013-01-11 12:13:00,
2013-01-11 07:28:00,28.3,22.0,30.48,North,350,0.0,-999.0,78,-99.99,,,0.00,weatherlink.com 1.10,2013-01-11 12:28:00,
2013-01-11 07:43:00,28.3,23.0,30.48,North,350,1.0,-999.0,79,-99.99,,,0.00,weatherlink.com 1.10,2013-01-11 12:43:00,
2013-01-11 07:58:00,28.3,23.0,30.48,North,350,0.0,-999.0,79,-99.99,,,0.00,weatherlink.com 1.10,2013-01-11 12:58:00,
2013-01-11 08:13:00,28.4,23.0,30.48,North,350,0.0,-999.0,80,-99.99,,,0.00,weatherlink.com 1.10,2013-01-11 13:13:00,
2013-01-11 08:28:00,28.7,23.0,30.49,North,350,0.0,-999.0,80,-99.99,,,0.00,weatherlink.com 1.10,2013-01-11 13:28:00,
2013-01-11 08:43:00,29.1,24.0,30.49,North,350,0.0,-999.0,81,-99.99,,,0.00,weatherlink.com 1.10,2013-01-11 13:43:00,
2013-01-11 08:58:00,30.4,24.0,30.49,North,350,0.0,-999.0,78,-99.99,,,0.00,weatherlink.com 1.10,2013-01-11 13:58:00,
2013-01-11 09:13:00,30.9,25.0,30.49,North,350,0.0,-999.0,78,-99.99,,,0.00,weatherlink.com 1.10,2013-01-11 14:13:00,
2013-01-11 09:28:00,31.7,25.0,30.48,North,350,0.0,-999.0,76,-99.99,,,0.00,weatherlink.com 1.10,2013-01-11 14:28:00,
2013-01-11 09:43:00,32.6,25.0,30.48,North,350,0.0,-999.0,74,-99.99,,,0.00,weatherlink.com 1.10,2013-01-11 14:43:00,
2013-01-11 09:58:00,32.8,25.0,30.48,North,350,0.0,-999.0,73,-99.99,,,0.00,weatherlink.com 1.10,2013-01-11 14:58:00,
2013-01-11 10:13:00,33.8,26.0,30.48,North,350,0.0,-999.0,72,-99.99,,,0.00,weatherlink.com 1.10,2013-01-11 15:13:00,
2013-01-11 10:28:00,34.2,26.0,30.46,North,350,0.0,-999.0,72,-99.99,,,0.00,weatherlink.com 1.10,2013-01-11 15:28:00,
2013-01-11 10:43:00,34.9,27.0,30.45,North,350,3.0,-999.0,72,-99.99,,,0.00,weatherlink.com 1.10,2013-01-11 15:43:00,
2013-01-11 10:58:00,35.5,28.0,30.45,North,350,0.0,-999.0,73,-99.99,,,0.00,weatherlink.com 1.10,2013-01-11 15:58:00,
2013-01-11 11:13:00,35.9,28.0,30.44,North,350,0.0,-999.0,73,-99.99,,,0.00,weatherlink.com 1.10,2013-01-11 16:13:00,
2013-01-11 11:28:00,36.8,29.0,30.43,North,350,0.0,-999.0,73,-99.99,,,0.00,weatherlink.com 1.10,2013-01-11 16:28:00,
2013-01-11 11:43:00,37.5,29.0,30.42,North,350,0.0,-999.0,72,-99.99,,,0.00,weatherlink.com 1.10,2013-01-11 16:43:00,
2013-01-11 11:58:00,38.0,30.0,30.40,North,350,0.0,-999.0,72,-99.99,,,0.00,weatherlink.com 1.10,2013-01-11 16:58:00,
2013-01-11 12:13:00,38.3,30.0,30.40,North,350,0.0,-999.0,72,-99.99,,,0.00,weatherlink.com 1.10,2013-01-11 17:13:00,
2013-01-11 12:28:00,38.6,30.0,30.40,North,350,0.0,-999.0,72,-99.99,,,0.00,weatherlink.com 1.10,2013-01-11 17:28:00,
2013-01-11 12:43:00,38.7,30.0,30.39,North,350,0.0,-999.0,71,-99.99,,,0.00,weatherlink.com 1.10,2013-01-11 17:43:00,
2013-01-11 12:58:00,38.7,30.0,30.38,North,350,0.0,-999.0,72,-99.99,,,0.00,weatherlink.com 1.10,2013-01-11 17:58:00,
2013-01-11 13:13:00,38.8,30.0,30.38,North,350,0.0,-999.0,71,-99.99,,,0.00,weatherlink.com 1.10,2013-01-11 18:13:00,
2013-01-11 13:28:00,38.9,30.0,30.38,North,350,0.0,-999.0,71,-99.99,,,0.00,weatherlink.com 1.10,2013-01-11 18:28:00,
2013-01-11 13:43:00,39.0,30.0,30.37,North,350,0.0,-999.0,71,-99.99,,,0.00,weatherlink.com 1.10,2013-01-11 18:43:00,
2013-01-11 13:58:00,39.1,30.0,30.36,North,350,0.0,-999.0,71,-99.99,,,0.00,weatherlink.com 1.10,2013-01-11 18:58:00,
2013-01-11 14:13:00,39.1,30.0,30.36,North,350,1.0,-999.0,71,-99.99,,,0.00,weatherlink.com 1.10,2013-01-11 19:13:00,
2013-01-11 14:28:00,39.0,31.0,30.36,North,350,0.0,-999.0,72,-99.99,,,0.00,weatherlink.com 1.10,2013-01-11 19:28:00,
2013-01-11 14:43:00,39.0,31.0,30.36,North,350,0.0,-999.0,72,-99.99,,,0.00,weatherlink.com 1.10,2013-01-11 19:43:00,
2013-01-11 14:58:00,38.9,31.0,30.36,North,350,0.0,-999.0,72,-99.99,,,0.00,weatherlink.com 1.10,2013-01-11 19:58:00,
2013-01-11 15:13:00,39.0,31.0,30.35,North,350,0.0,-999.0,72,-99.99,,,0.00,weatherlink.com 1.10,2013-01-11 20:13:00,
2013-01-11 15:28:00,38.8,31.0,30.33,North,350,1.0,-999.0,73,-99.99,,,0.00,weatherlink.com 1.10,2013-01-11 20:28:00,
2013-01-11 15:43:00,38.6,31.0,30.33,North,350,0.0,-999.0,73,-99.99,,,0.00,weatherlink.com 1.10,2013-01-11 20:43:00,
2013-01-11 15:58:00,38.3,30.0,30.32,North,350,0.0,-999.0,73,-99.99,,,0.00,weatherlink.com 1.10,2013-01-11 20:58:00,
2013-01-11 16:14:00,38.2,31.0,30.32,North,350,0.0,-999.0,74,-99.99,,,0.00,weatherlink.com 1.10,2013-01-11 21:14:00,
2013-01-11 16:28:00,38.1,31.0,30.31,North,350,0.0,-999.0,75,-99.99,,,0.00,weatherlink.com 1.10,2013-01-11 21:28:00,
2013-01-11 16:43:00,38.0,31.0,30.31,North,350,0.0,-999.0,75,-99.99,,,0.00,weatherlink.com 1.10,2013-01-11 21:43:00,
2013-01-11 16:58:00,37.8,30.0,30.31,North,350,0.0,-999.0,74,-99.99,,,0.00,weatherlink.com 1.10,2013-01-11 21:58:00,
2013-01-11 17:13:00,37.5,31.0,30.30,North,350,0.0,-999.0,76,-99.99,,,0.00,weatherlink.com 1.10,2013-01-11 22:13:00,
2013-01-11 17:28:00,37.2,30.0,30.30,North,350,0.0,-999.0,76,-99.99,,,0.01,weatherlink.com 1.10,2013-01-11 22:28:00,
2013-01-11 17:44:00,37.0,31.0,30.30,North,1,0.0,-999.0,79,-99.99,,,0.01,weatherlink.com 1.10,2013-01-11 22:44:00,
2013-01-11 17:58:00,36.9,31.0,30.30,North,1,0.0,-999.0,80,-99.99,,,0.01,weatherlink.com 1.10,2013-01-11 22:58:00,
2013-01-11 18:13:00,36.8,32.0,30.29,North,359,0.0,-999.0,81,-99.99,,,0.01,weatherlink.com 1.10,2013-01-11 23:13:00,
2013-01-11 18:29:00,36.7,32.0,30.28,North,360,0.0,-999.0,82,-99.99,,,0.01,weatherlink.com 1.10,2013-01-11 23:29:00,
2013-01-11 18:43:00,36.6,32.0,30.28,North,360,0.0,-999.0,83,-99.99,,,0.01,weatherlink.com 1.10,2013-01-11 23:43:00,
2013-01-11 18:58:00,36.6,32.0,30.27,SE,128,2.0,-999.0,84,-99.99,,,0.01,weatherlink.com 1.10,2013-01-11 23:58:00,
2013-01-11 19:14:00,36.6,33.0,30.27,ESE,111,0.0,-999.0,85,-99.99,,,0.01,weatherlink.com 1.10,2013-01-12 00:14:00,
2013-01-11 19:29:00,36.6,33.0,30.26,SE,136,0.0,-999.0,86,-99.99,,,0.01,weatherlink.com 1.10,2013-01-12 00:29:00,
2013-01-11 19:44:00,36.6,33.0,30.26,SSE,148,0.0,-999.0,86,-99.99,,,0.01,weatherlink.com 1.10,2013-01-12 00:44:00,
2013-01-11 19:59:00,36.9,33.0,30.25,SE,143,5.0,-999.0,87,-99.99,,,0.01,weatherlink.com 1.10,2013-01-12 00:59:00,
2013-01-11 20:14:00,37.1,34.0,30.25,SSE,153,0.0,-999.0,87,-99.99,,,0.02,weatherlink.com 1.10,2013-01-12 01:14:00,
2013-01-11 20:29:00,37.3,34.0,30.24,SE,138,0.0,-999.0,88,-99.99,,,0.02,weatherlink.com 1.10,2013-01-12 01:29:00,
2013-01-11 20:44:00,37.5,34.0,30.24,SSE,149,0.0,-999.0,88,-99.99,,,0.03,weatherlink.com 1.10,2013-01-12 01:44:00,
2013-01-11 20:59:00,37.5,34.0,30.23,SE,146,1.0,-999.0,88,-99.99,,,0.05,weatherlink.com 1.10,2013-01-12 01:59:00,
2013-01-11 21:14:00,37.5,35.0,30.23,SE,130,0.0,-999.0,89,-99.99,,,0.06,weatherlink.com 1.10,2013-01-12 02:14:00,
2013-01-11 21:29:00,37.5,35.0,30.22,SE,136,0.0,-999.0,89,-99.99,,,0.07,weatherlink.com 1.10,2013-01-12 02:29:00,
2013-01-11 21:44:00,37.7,35.0,30.22,SE,130,1.0,-999.0,89,-99.99,,,0.08,weatherlink.com 1.10,2013-01-12 02:44:00,
2013-01-11 21:59:00,37.8,35.0,30.22,SE,139,0.0,-999.0,90,-99.99,,,0.09,weatherlink.com 1.10,2013-01-12 02:59:00,
2013-01-11 22:14:00,37.9,35.0,30.24,SE,132,0.0,-999.0,90,-99.99,,,0.11,weatherlink.com 1.10,2013-01-12 03:14:00,
2013-01-11 22:29:00,37.9,35.0,30.23,SE,130,0.0,-999.0,90,-99.99,,,0.13,weatherlink.com 1.10,2013-01-12 03:29:00,
2013-01-11 22:44:00,37.8,35.0,30.21,SSE,151,3.0,-999.0,90,-99.99,,,0.15,weatherlink.com 1.10,2013-01-12 03:44:00,
2013-01-11 22:59:00,38.0,35.0,30.19,SE,139,3.0,-999.0,90,-99.99,,,0.16,weatherlink.com 1.10,2013-01-12 03:59:00,
2013-01-11 23:14:00,38.1,36.0,30.20,SSE,155,0.0,-999.0,90,-99.99,,,0.17,weatherlink.com 1.10,2013-01-12 04:14:00,
2013-01-11 23:29:00,38.3,36.0,30.20,SE,134,0.0,-999.0,91,-99.99,,,0.19,weatherlink.com 1.10,2013-01-12 04:29:00,
2013-01-11 23:44:00,38.4,36.0,30.20,SE,124,0.0,-999.0,91,-99.99,,,0.20,weatherlink.com 1.10,2013-01-12 04:44:00,
2013-01-11 23:59:00,38.4,36.0,30.20,East,88,2.0,-999.0,91,-99.99,,,0.21,weatherlink.com 1.10,2013-01-12 04:59:00,